CW8822 Caguas PR US current weather conditions

sailwx.info

Wind from 158

Air temperature 23.3° C
Dewpoint 22.3° C

Last reported at 2016-Jun-29 02:43 UTC.
Time now 2016-Jun-29 03:57 UTC

Location: N 18°12' W 066°01'.
View on Google Maps.

See reports from other nearby stations

  
Tides and Currents Weather Stations Pressure Air Temp Water Temp Dewpoint Dewpoint Depression Visibility Wind Speed Wind Dir Waves Ship Positions
date/time (UTC)wind fromknots sea level pressurealtimeterstation pressurevisibilityair tempwater tempwave heightnotes
2016-Jun-29 02:43 158 23.3
2016-Jun-29 02:28 158 23.3
2016-Jun-29 02:13 158 23.9
2016-Jun-29 01:58 158 23.9
2016-Jun-29 01:43 158 0 gusting 5 23.3
2016-Jun-29 01:28 158 23.3
2016-Jun-29 01:13 158 23.9
2016-Jun-29 00:58 158 23.9
2016-Jun-29 00:43 158 23.9
2016-Jun-29 00:28 159 23.9
2016-Jun-29 00:13 158 23.9
2016-Jun-28 23:58 158 23.9
2016-Jun-28 23:43 159 23.9
2016-Jun-28 23:28 159 23.9
2016-Jun-28 23:13 120 25.0
2016-Jun-28 22:58 125 3 gusting 10 26.1
2016-Jun-28 22:43 095 26.1
2016-Jun-28 22:28 120 26.1
2016-Jun-28 22:13 087 26.7
2016-Jun-28 21:58 092 26.7
2016-Jun-28 21:43 158 27.2
2016-Jun-28 21:28 157 27.2
2016-Jun-28 21:13 103 27.2
2016-Jun-28 20:58 096 0 gusting 5 27.2
2016-Jun-28 20:43 157 0 gusting 6 27.8
2016-Jun-28 20:28 090 0 gusting 4 27.8
2016-Jun-28 20:13 134 27.8
2016-Jun-28 19:58 143 0 gusting 10 27.8
2016-Jun-28 19:43 144 0 gusting 6 26.7
2016-Jun-28 19:28 163 4 gusting 10 28.9
2016-Jun-28 19:13 094 29.4
2016-Jun-28 18:58 092 30.0
2016-Jun-28 18:43 164 30.0
2016-Jun-28 18:28 188 29.4
2016-Jun-28 18:13 103 0 gusting 7 28.9
2016-Jun-28 17:58 145 1 gusting 6 28.9
2016-Jun-28 17:43 118 28.9
2016-Jun-28 17:28 135 1 gusting 11 28.9
2016-Jun-28 17:13 068 28.9
2016-Jun-28 16:58 081 29.4
2016-Jun-28 16:43 122 29.4
2016-Jun-28 16:28 134 0 gusting 10 29.4
2016-Jun-28 16:13 150 0 gusting 10 29.4
2016-Jun-28 15:58 090 2 gusting 7 28.9
2016-Jun-28 15:43 081 1 gusting 13 28.9
2016-Jun-28 15:29 059 0 gusting 7 28.9
2016-Jun-28 15:13 167 0 gusting 7 28.3
2016-Jun-28 14:58 080 0 gusting 8 28.9
2016-Jun-28 14:43 096 0 gusting 6 28.9
2016-Jun-28 14:28 078 1 gusting 10 28.9
2016-Jun-28 14:13 160 1 gusting 8 28.3
2016-Jun-28 13:57 184 2 gusting 9 27.8
2016-Jun-28 13:42 080 0 gusting 10 27.8
2016-Jun-28 13:28 092 2 gusting 10 27.8
2016-Jun-28 13:12 118 0 gusting 7 26.7
2016-Jun-28 12:57 126 26.1
2016-Jun-28 12:42 125 25.0
2016-Jun-28 12:27 155 25.6
2016-Jun-28 12:12 140 26.1
2016-Jun-28 11:57 122 26.1
2016-Jun-28 11:42 106 26.1
2016-Jun-28 11:27 100 25.6
2016-Jun-28 11:12 360 25.0
2016-Jun-28 10:57 124 24.4
2016-Jun-28 10:42 150 23.9
2016-Jun-28 10:27 136 23.3
2016-Jun-28 10:12 139 23.3
2016-Jun-28 09:57 117 23.3
2016-Jun-28 09:42 146 23.3
2016-Jun-28 09:27 146 23.9
2016-Jun-28 09:12 146 23.9
2016-Jun-28 08:57 146 23.9
2016-Jun-28 08:42 146 23.9
2016-Jun-28 08:27 150 23.9
2016-Jun-28 08:12 150 23.9
2016-Jun-28 07:57 150 23.3
2016-Jun-28 07:42 150 23.3
2016-Jun-28 07:27 150 23.9
2016-Jun-28 07:12 150 23.9
2016-Jun-28 06:57 150 23.9
2016-Jun-28 06:42 153 23.9
2016-Jun-28 06:27 153 23.9
2016-Jun-28 06:12 153 23.9
2016-Jun-28 05:57 153 23.9
2016-Jun-28 05:42 152 23.9
2016-Jun-28 05:26 152 23.9
2016-Jun-28 05:11 152 23.9
2016-Jun-28 04:56 152 23.9
2016-Jun-28 04:41 152 23.9
2016-Jun-28 04:26 152 23.9
2016-Jun-28 04:11 152 23.9
2016-Jun-28 03:56 152 24.4
2016-Jun-28 03:41 152 24.4
2016-Jun-28 03:26 144 24.4
2016-Jun-28 03:11 137 24.4
2016-Jun-28 02:56 128 24.4
2016-Jun-28 02:41 129 24.4
2016-Jun-28 02:26 129 24.4
2016-Jun-28 02:11 129 24.4
2016-Jun-28 01:56 129 24.4
2016-Jun-28 01:41 123 24.4
2016-Jun-28 01:26 123 24.4
2016-Jun-28 01:11 123 24.4
2016-Jun-28 00:56 123 24.4
2016-Jun-28 00:41 119 24.4
2016-Jun-28 00:26 115 24.4
2016-Jun-28 00:11 115 24.4
2016-Jun-27 23:56 103 25.0
2016-Jun-27 23:41 128 25.6
2016-Jun-27 23:26 131 25.6
2016-Jun-27 23:11 131 26.1
2016-Jun-27 22:56 139 26.7
2016-Jun-27 22:41 149 27.2
2016-Jun-27 22:26 175 27.2
2016-Jun-27 22:11 130 27.8
2016-Jun-27 21:56 156 28.3
2016-Jun-27 21:41 128 27.8
2016-Jun-27 21:26 071 2 gusting 8 28.3
2016-Jun-27 21:11 128 28.9
2016-Jun-27 20:56 127 1 gusting 6 28.9
2016-Jun-27 20:41 227 29.4
2016-Jun-27 20:26 028 29.4
2016-Jun-27 20:11 173 29.4
2016-Jun-27 19:56 084 29.4
2016-Jun-27 19:41 138 1 gusting 7 30.0
2016-Jun-27 19:26 161 1 gusting 5 30.0
2016-Jun-27 19:11 098 30.0
2016-Jun-27 18:56 094 1 gusting 6 29.4
2016-Jun-27 18:41 169 2 gusting 9 30.0
2016-Jun-27 18:26 120 1 gusting 7 29.4
2016-Jun-27 18:11 099 0 gusting 8 29.4
2016-Jun-27 17:56 046 1 gusting 7 30.6
2016-Jun-27 17:41 114 1 gusting 9 29.4
2016-Jun-27 17:26 078 0 gusting 12 29.4
2016-Jun-27 17:11 187 0 gusting 7 29.4
2016-Jun-27 16:56 069 1 gusting 9 28.9
2016-Jun-27 16:41 155 0 gusting 13 28.3
2016-Jun-27 16:26 149 1 gusting 7 28.3
2016-Jun-27 16:11 044 28.9
2016-Jun-27 15:56 182 2 gusting 7 30.0
2016-Jun-27 15:41 051 29.4
2016-Jun-27 15:34 168 30.0
2016-Jun-27 15:10 090 28.9
2016-Jun-27 14:55 030 0 gusting 8 28.9
2016-Jun-27 14:40 110 28.9
2016-Jun-27 14:25 162 28.9
2016-Jun-27 14:10 360 0 gusting 6 28.3
2016-Jun-27 13:55 169 0 gusting 6 28.3
2016-Jun-27 13:40 062 0 gusting 8 27.8
2016-Jun-27 13:25 060 2 gusting 8 27.8
2016-Jun-27 13:10 079 2 gusting 7 27.2
2016-Jun-27 12:55 148 0 gusting 6 27.2
2016-Jun-27 12:40 042 26.7
2016-Jun-27 12:25 062 26.7
2016-Jun-27 12:10 121 26.1
2016-Jun-27 11:55 159 25.0
2016-Jun-27 11:40 159 24.4
2016-Jun-27 11:25 159 24.4
2016-Jun-27 11:10 134 24.4
2016-Jun-27 10:54 134 23.9
2016-Jun-27 10:39 134 23.3
2016-Jun-27 10:24 134 22.8
2016-Jun-27 10:09 134 22.8
2016-Jun-27 09:54 134 22.8
2016-Jun-27 09:39 134 23.3
2016-Jun-27 09:24 134 23.3
2016-Jun-27 09:09 134 23.3
2016-Jun-27 08:54 134 23.3
2016-Jun-27 08:39 134 23.3
2016-Jun-27 08:24 134 23.3
2016-Jun-27 08:09 134 23.3
2016-Jun-27 07:54 134 23.9
2016-Jun-27 07:39 134 23.9
2016-Jun-27 07:24 134 23.9
2016-Jun-27 07:09 096 23.9
2016-Jun-27 06:54 094 23.9
2016-Jun-27 06:39 091 23.9
2016-Jun-27 06:24 091 23.9
2016-Jun-27 06:09 091 23.9
2016-Jun-27 05:54 086 23.9
2016-Jun-27 05:39 074 24.4
2016-Jun-27 05:24 074 24.4
2016-Jun-27 05:09 074 24.4
2016-Jun-27 04:54 074 24.4
2016-Jun-27 04:39 074 24.4
2016-Jun-27 04:24 074 24.4
2016-Jun-27 04:09 074 24.4
2016-Jun-27 03:54 074 24.4
2016-Jun-27 03:39 074 25.0
2016-Jun-27 03:24 074 25.0
2016-Jun-27 03:09 074 25.0